User: anonymous   Login
Location: Unspecified
(42.3650°N, 71.1030°W)
Time: 21:23:42
(UTC+00:00)
Language:

Transit 4A - Orbit

View from above orbital plane
View from above orbital plane
View from above satellite
View from above satellite

Ground track
Ground track

The orbit data is extracted from the following two-line orbital elements,

1 00116U 61015A   24177.50436756  .00000004  00000-0  62088-4 0  9990
2 00116  66.8082 216.4198 0069342  56.0654 304.6992 13.92052782196245
Epoch (UTC): 25 June 2024 12:06:17
Eccentricity: 0.0069342
inclination: 66.8082°
perigee height: 871 km
apogee height: 972 km
right ascension of ascending node: 216.4198°
argument of perigee: 56.0654°
revolutions per day: 13.92052782
mean anomaly at epoch: 304.6992°
orbit number at epoch: 19624

The dashed part of the orbit path shows where the satellite is in the earth's shadow,  

DLR